Regional Weather Roundup
Issued by NWS

Home | Current Version | Previous Version | Text Only | Print | Product List | Glossary Off
Versions: 1 2 3 4 5 6 7 8 9 10 11 12 13 14 15 16 17 18 19 20 21 22 23 24 25 26 27 28 29 30 31 32 33 34 35 36 37 38 39 40 41 42 43 44 45 46 47 48 49 50

000
ASUS43 KDTX 290910
RWRMI
MICHIGAN HOURLY REGIONAL WEATHER ROUNDUP
NATIONAL WEATHER SERVICE DETROIT/PONTIAC MI
ISSUED BY NATIONAL WEATHER SERVICE GRAND RAPIDS MI
500 AM EDT THU JUN 29 2017

NOTE: "FAIR" INDICATES FEW OR NO CLOUDS BELOW 12,000 FEET WITH NO
SIGNIFICANT WEATHER AND/OR OBSTRUCTION TO VISIBILITY.

MIZ047>049-052>055-059>063-066>070-074>076-081>083-291000-
SOUTHEAST LOWER MICHIGAN

CITY           SKY/WX    TMP DP  RH WIND       PRES   REMARKS
ADRIAN         LGT RAIN  66  59  78 SW6       29.91F
ALMA           LGT RAIN  64  62  94 S9        29.78S
ANN ARBOR      LGT RAIN  65  59  81 S9        29.89F
BAD AXE        CLOUDY    64  58  81 SW7       29.79S
DETROIT CITY   CLOUDY    71  56  58 SW10      29.89R
DETROIT        CLOUDY    72  55  55 SW17      29.90S
FLINT          CLOUDY    67  59  75 SW8       29.82F
GROSSE ILE     CLOUDY    71  56  60 SW8       29.90R
HILLSDALE      MOCLDY    63  55  77 CALM      29.89F
HOWELL         LGT RAIN  65  60  83 SW6       29.85F

CITY           SKY/WX    TMP DP  RH WIND       PRES   REMARKS
JACKSON        CLOUDY    65  60  84 S10       29.86F
LANSING        LGT RAIN  66  61  84 S12       29.81S
MASON          CLOUDY    64  62  93 SE6       29.83F
MONROE         MOCLDY    70  55  57 SW7       29.90S
MT. CLEMENS    CLOUDY    71  56  58 SW15G24   29.85F
PONTIAC        LGT RAIN  66  60  81 S12G20    29.84F
PORT HOPE        N/A     66  58  75 VRB7      29.76F
PORT HURON     CLOUDY    68  55  64 S13G20    29.85S
TRI CITIES     CLOUDY    65  63  93 SW16      29.79S
YPSILANTI      LGT RAIN  69  58  67 SW10      29.90F
$$
MIZ043>046-050>051-056>058-064>065-071>073-077>080-291000-
SOUTHWEST LOWER MICHIGAN

CITY           SKY/WX    TMP DP  RH WIND       PRES   REMARKS
BATTLE CREEK   CLOUDY    64  63  96 S9        29.83F
BENTON HARBOR  CLOUDY    65  62  90 S7        29.79F
BIG RAPIDS     LGT RAIN  63  60  91 S8        29.72F
COLDWATER      PTCLDY    64  62  91 SE5       29.87F
HOLLAND        CLOUDY    66  63  90 S10       29.76F
GRAND RAPIDS   CLOUDY    65  64  97 S10G22    29.76F
KALAMAZOO      MOCLDY    65  61  87 SE6       29.81F
MARSHALL       CLOUDY    64  64  97 SE6       29.84F
MOUNT PLEASANT CLOUDY    64  61  90 SW6       29.76R
MUSKEGON       LGT RAIN  67  63  87 S17G30    29.69F
STURGIS        CLOUDY    65  60  86 SE7       29.85F
$$
MIZ016>042-291000-
NORTHERN LOWER MICHIGAN

CITY           SKY/WX    TMP DP  RH WIND       PRES   REMARKS
ALPENA         CLOUDY    61  61 100 SE5       29.73F
BEAVER ISLAND  CLOUDY    63  61  94 SE6       29.66S
BELLAIRE       LGT RAIN  63  60  91 S6        29.68S
CADILLAC       DRIZZLE   62  60  96 S10       29.73F
CHARLEVOIX     CLOUDY    64  63  97 S5        29.69F
GAYLORD        LGT RAIN  61  57  87 S9        29.72R
HOUGHTON LAKE  CLOUDY    62  60  93 SW10G18   29.76R
MANISTEE       LGT RAIN  64  62  93 SE6       29.66F
OSCODA         CLOUDY    63  58  86 SW13      29.73F
PELLSTON       CLOUDY    61  59  93 CALM      29.69S
TRAVERSE CITY  LGT RAIN  65  61  87 VRB7      29.66S
LUDINGTON      CLOUDY    64  63  94 S9G17     29.68S
$$
MIZ007>008-015-291000-
EASTERN UPPER MICHIGAN

CITY           SKY/WX    TMP DP  RH WIND       PRES   REMARKS
KINROSS        CLOUDY    59  58  96 E6        29.70F
MACKINAC ISLAN CLOUDY    61  61 100 SE5       29.68F
NEWBERRY       RAIN      60  59  97 S10       29.66S
S. S. MARIE    HVY RAIN  60  58  92 E7        29.70F FOG
$$
MIZ004>006-011>014-085-291000-
CENTRAL UPPER MICHIGAN

CITY           SKY/WX    TMP DP  RH WIND       PRES   REMARKS
MANISTIQUE     CLOUDY    57  54  89 SW6       29.63F
ESCANABA       CLOUDY    61  60  97 S8        29.60F
MENOMINEE      CLOUDY    63  61  94 S5        29.61S
SAWYER-GWINN   DRZL/FOG  60  59  98 S10       29.59F VSB 1/2
$$
MIZ001>003-009>011-084-291000-
WESTERN UPPER MICHIGAN

CITY           SKY/WX    TMP DP  RH WIND       PRES   REMARKS
IRON MOUNTAIN  FOG       63  61  93 SE6       29.57S VSB 1/4
HOUGHTON       FOG       56  54  93 E12       29.55S VSB 1/4
COPPER HARBOR    N/A     58  56  93 VRB6      29.56F
IRONWOOD       LGT RAIN  65  63  93 SW8       29.52R
$$

ABBREVIATIONS USED IN REMARKS
   TC - TEMPERATURE IN CELSIUS
  WCI - WIND CHILL INDEX
   HX - HEAT INDEX
  VSB - VISIBILITY




USA.gov is the U.S. government's official web portal to all federal, state and local government web resources and services.